Tracking 22019 objects as of 2-Dec-2020
HD Live streaming from Space Station
objects crossing your sky now

OSCAR 14 (UOSAT 3)

Track OSCAR 14 (UOSAT 3) now!
10-day predictions
OSCAR 14 (UOSAT 3) is classified as:


NORAD ID: 20437
Int'l Code: 1990-005B
Perigee: 782.7 km
Apogee: 799.3 km
Inclination: 98.8 °
Period: 100.5 minutes
Semi major axis: 7161 km
RCS: 0.3858 m2 (medium)
Launch date: January 22, 1990
Source: United Kingdom (UK)
Launch site: FRENCH GUIANA (FRGUI)

Uplink (MHz): 145.975
Downlink (MHz): 435.070
Beacon (MHz):
Mode: FM
Call sign:
Status: Inactive

aabbcc
Your satellite tracking list
Your tracking list is empty




NASA's NSSDC Master Catalog

Two Line Element Set (TLE):
1 20437U 90005B   20336.70456091  .00000015  00000-0  22399-4 0  9991
2 20437  98.8320 305.7595 0011627  68.9373 104.1214 14.32359467611842
Source of the keplerian elements: AFSPC